Simultaneous Nadir Overpasses (SNOs) Predictions

Prediction of SNOs between FY3D and NOAA-19 Satellite Orbit:

Table of predicted SNOs for the next 14.0 days since TLE Epoch: 6/8/2024
Index Date (FY3D) Time (FY3D) Lat,Lon (FY3D) SZA (FY3D ) Date (NOAA-19) Time (NOAA-19) Lat,Lon (NOAA-19) SZA (NOAA-19 ) Distance(km) Time Diff (sec)
1 06/17/2024 06:52:23 -75.60,-102.59 127.88 06/17/2024 06:51:17 -75.60,-105.66 127.85 84.82 66
2 06/17/2024 07:43:18 76.04, 63.23 52.57 06/17/2024 07:42:04 76.05, 63.17 52.59 2.01 74
3 06/17/2024 08:34:04 -76.07,-129.57 127.40 06/17/2024 08:33:05 -76.05,-129.59 127.42 2.33 59
4 06/17/2024 09:24:49 76.06, 37.80 52.58 06/17/2024 09:24:02 76.05, 37.67 52.58 3.61 47
5 06/17/2024 10:15:35 -76.09,-154.99 127.39 06/17/2024 10:15:02 -76.09,-154.93 127.38 1.95 33
6 06/17/2024 11:06:20 76.07, 12.38 52.60 06/17/2024 11:05:59 76.09, 12.34 52.62 2.84 21
7 06/17/2024 11:57:06 -76.10, 179.58 127.38 06/17/2024 11:57:00 -76.09, 179.57 127.39 1.01 6
8 06/17/2024 12:47:51 76.08, -13.05 52.61 06/17/2024 12:47:57 76.09, -13.16 52.62 3.19 6
9 06/17/2024 13:38:37 -76.11, 154.16 127.37 06/17/2024 13:38:57 -76.13, 154.24 127.35 2.99 20
10 06/17/2024 14:29:23 76.14, -38.63 52.67 06/17/2024 14:29:54 76.13, -38.50 52.66 3.81 31
11 06/17/2024 15:20:08 -76.13, 128.73 127.35 06/17/2024 15:20:55 -76.13, 128.74 127.35 0.31 47
12 06/17/2024 16:10:54 76.16, -64.06 52.68 06/17/2024 16:11:52 76.13, -63.99 52.65 3.30 58
13 06/17/2024 17:01:39 -76.14, 103.31 127.34 06/17/2024 17:02:53 -76.13, 103.24 127.36 2.45 74
14 06/17/2024 17:52:34 76.57, -90.99 53.11 06/17/2024 17:53:40 76.57, -87.81 53.09 82.36 66



Historial Predications of SNOs between FY3D and NOAA-19
